Torna al catalogo

STARLINK-31931

AttivoComunicazioniVLEO
NORAD 59864·PAYLOAD·🇺🇸 United States

Lanciato May 24, 2024 da Cape Canaveral Space Force Station

Loading…

Prossimi Passaggi (prossime 24 ore)

TLE

AggiornatoSource: CelesTrak SupGP

Epoca: Sep 14, 2026, 20:55 UTC

1 59864C 24098G   26257.87201389 -.00007087  00000+0 -25671-3 0  2579
2 59864  43.0004 289.9220 0001315 269.8255 150.6021 15.27579081    15

Traccia STARLINK-31931 in tempo reale con AllMySat

Download on the App Store